Time,TemperatureF,DewpointF,PressureIn,WindDirection,WindDirectionDegrees,WindSpeedMPH,WindSpeedGustMPH,Humidity,HourlyPrecipIn,Conditions,Clouds,dailyrainin,SoftwareType,DateUTC
2014-09-22 00:01:00,50.0,29.0,29.56,NNW,342,0.0,0.0,44,0.00,,,0.00,VWS V15.00,2014-09-22 05:01:00,
2014-09-22 00:06:00,50.0,29.0,29.56,NNW,342,0.0,0.0,44,0.00,,,0.00,VWS V15.00,2014-09-22 05:06:00,
2014-09-22 00:11:00,50.0,29.0,29.56,NNW,342,0.0,0.0,44,0.00,,,0.00,VWS V15.00,2014-09-22 05:11:00,
2014-09-22 00:16:00,50.0,29.0,29.56,NNW,342,0.0,0.0,44,0.00,,,0.00,VWS V15.00,2014-09-22 05:16:00,
2014-09-22 00:21:00,49.5,29.0,29.56,NNW,342,0.0,0.0,45,0.00,,,0.00,VWS V15.00,2014-09-22 05:21:00,
2014-09-22 00:26:00,49.5,29.0,29.56,NNW,342,0.0,0.0,45,0.00,,,0.00,VWS V15.00,2014-09-22 05:26:00,
2014-09-22 00:31:00,49.5,29.6,29.56,NNW,342,0.0,0.0,46,0.00,,,0.00,VWS V15.00,2014-09-22 05:31:00,
2014-09-22 00:36:00,49.5,30.1,29.56,NNW,342,0.0,0.0,47,0.00,,,0.00,VWS V15.00,2014-09-22 05:36:00,
2014-09-22 00:40:00,49.5,30.1,29.59,NNW,342,0.0,0.0,47,0.00,,,0.00,VWS V15.00,2014-09-22 05:40:00,
2014-09-22 00:45:00,49.6,30.2,29.59,NNW,342,0.0,0.0,47,0.00,,,0.00,VWS V15.00,2014-09-22 05:45:00,
2014-09-22 00:50:00,49.3,29.9,29.59,NNW,342,0.0,0.0,47,0.00,,,0.00,VWS V15.00,2014-09-22 05:50:00,
2014-09-22 00:53:00,49.3,29.9,29.59,NNW,342,0.0,0.0,47,0.00,,,0.00,VWS V15.00,2014-09-22 05:53:00,
2014-09-22 00:55:00,49.3,29.9,29.59,NNW,342,0.0,0.0,47,0.00,,,0.00,VWS V15.00,2014-09-22 05:55:00,
2014-09-22 01:00:00,49.3,29.9,29.59,NNW,342,0.0,0.0,47,0.00,,,0.00,VWS V15.00,2014-09-22 06:00:00,
2014-09-22 01:05:00,49.1,29.8,29.59,NNW,342,0.0,0.0,47,0.00,,,0.00,VWS V15.00,2014-09-22 06:05:00,
2014-09-22 01:10:00,49.1,30.3,29.59,NNW,342,0.0,0.0,48,0.00,,,0.00,VWS V15.00,2014-09-22 06:10:00,
2014-09-22 01:15:00,49.1,30.3,29.59,NNW,342,0.0,0.0,48,0.00,,,0.00,VWS V15.00,2014-09-22 06:15:00,
2014-09-22 01:20:00,48.9,30.1,29.59,NNW,342,0.0,0.0,48,0.00,,,0.00,VWS V15.00,2014-09-22 06:20:00,
2014-09-22 01:25:00,48.7,29.9,29.59,NNW,342,0.0,0.0,48,0.00,,,0.00,VWS V15.00,2014-09-22 06:25:00,
2014-09-22 01:30:00,48.7,29.9,29.59,NNW,342,0.0,0.0,48,0.00,,,0.00,VWS V15.00,2014-09-22 06:30:00,
2014-09-22 01:35:00,48.7,29.9,29.59,NNW,342,0.0,0.0,48,0.00,,,0.00,VWS V15.00,2014-09-22 06:35:00,
2014-09-22 01:39:00,48.7,29.9,29.59,NNW,342,0.0,0.0,48,0.00,,,0.00,VWS V15.00,2014-09-22 06:39:00,
2014-09-22 01:44:00,48.7,29.9,29.59,NNW,342,0.0,0.0,48,0.00,,,0.00,VWS V15.00,2014-09-22 06:44:00,
2014-09-22 01:49:00,48.7,29.9,29.59,NNW,342,0.0,0.0,48,0.00,,,0.00,VWS V15.00,2014-09-22 06:49:00,
2014-09-22 01:54:00,48.4,29.6,29.59,NNW,342,0.0,0.0,48,0.00,,,0.00,VWS V15.00,2014-09-22 06:54:00,
2014-09-22 01:59:00,48.4,29.6,29.59,NNW,342,0.0,0.0,48,0.00,,,0.00,VWS V15.00,2014-09-22 06:59:00,
2014-09-22 02:04:00,48.4,29.6,29.59,NNW,342,0.0,0.0,48,0.00,,,0.12,VWS V15.00,2014-09-22 07:04:00,
2014-09-22 02:09:00,48.4,29.6,29.59,NNW,342,0.0,0.0,48,0.00,,,0.00,VWS V15.00,2014-09-22 07:09:00,
2014-09-22 02:14:00,48.4,29.6,29.59,NNW,342,0.0,0.0,48,0.00,,,0.00,VWS V15.00,2014-09-22 07:14:00,
2014-09-22 02:19:00,48.4,29.6,29.59,NNW,342,0.0,0.0,48,0.00,,,0.00,VWS V15.00,2014-09-22 07:19:00,
2014-09-22 02:24:00,48.4,29.6,29.59,NNW,342,0.0,0.0,48,0.00,,,0.00,VWS V15.00,2014-09-22 07:24:00,
2014-09-22 02:29:00,48.4,29.6,29.59,NNW,342,0.0,0.0,48,0.00,,,0.00,VWS V15.00,2014-09-22 07:29:00,
2014-09-22 02:34:00,48.4,29.6,29.59,NNW,342,0.0,0.0,48,0.00,,,0.00,VWS V15.00,2014-09-22 07:34:00,
2014-09-22 02:39:00,48.4,29.6,29.59,NNW,342,0.0,0.0,48,0.00,,,0.00,VWS V15.00,2014-09-22 07:39:00,
2014-09-22 02:44:00,48.4,29.6,29.59,NNW,342,0.0,0.0,48,0.00,,,0.00,VWS V15.00,2014-09-22 07:44:00,
2014-09-22 02:49:00,48.4,29.6,29.59,NNW,342,0.0,0.0,48,0.00,,,0.00,VWS V15.00,2014-09-22 07:49:00,
2014-09-22 02:54:00,48.4,29.6,29.59,NNW,342,0.0,0.0,48,0.00,,,0.00,VWS V15.00,2014-09-22 07:54:00,
2014-09-22 02:59:00,48.4,29.6,29.59,NNW,342,0.0,0.0,48,0.00,,,0.00,VWS V15.00,2014-09-22 07:59:00,
2014-09-22 03:04:00,48.4,29.6,29.59,NNW,342,0.0,0.0,48,0.00,,,0.00,VWS V15.00,2014-09-22 08:04:00,
2014-09-22 03:09:00,48.4,29.6,29.59,NNW,342,0.0,0.0,48,0.00,,,0.00,VWS V15.00,2014-09-22 08:09:00,
2014-09-22 03:14:00,48.4,29.6,29.59,NNW,342,0.0,0.0,48,0.00,,,0.00,VWS V15.00,2014-09-22 08:14:00,
2014-09-22 03:19:00,48.4,29.6,29.59,NNW,342,0.0,0.0,48,0.00,,,0.00,VWS V15.00,2014-09-22 08:19:00,
2014-09-22 03:22:00,48.4,29.6,29.59,NNW,342,0.0,0.0,48,0.00,,,0.00,VWS V15.00,2014-09-22 08:22:00,
2014-09-22 03:27:00,48.4,29.6,29.59,NNW,342,0.0,0.0,48,0.00,,,0.00,VWS V15.00,2014-09-22 08:27:00,
2014-09-22 03:31:00,48.4,29.6,29.59,NNW,342,0.0,0.0,48,0.00,,,0.00,VWS V15.00,2014-09-22 08:31:00,
2014-09-22 03:36:00,48.4,29.6,29.59,NNW,342,0.0,0.0,48,0.00,,,0.00,VWS V15.00,2014-09-22 08:36:00,
2014-09-22 03:40:00,48.4,29.6,29.59,NNW,342,0.0,0.0,48,0.00,,,0.00,VWS V15.00,2014-09-22 08:40:00,
2014-09-22 03:45:00,48.4,29.6,29.59,NNW,342,0.0,0.0,48,0.00,,,0.00,VWS V15.00,2014-09-22 08:45:00,
2014-09-22 03:50:00,46.8,29.6,29.59,NNW,342,0.0,0.0,51,0.00,,,0.00,VWS V15.00,2014-09-22 08:50:00,
2014-09-22 03:55:00,46.8,29.6,29.59,NNW,342,0.0,0.0,51,0.00,,,0.00,VWS V15.00,2014-09-22 08:55:00,
2014-09-22 04:00:00,46.8,29.6,29.59,NNW,342,0.0,0.0,51,0.00,,,0.00,VWS V15.00,2014-09-22 09:00:00,
2014-09-22 04:05:00,46.8,29.6,29.59,NNW,342,0.0,0.0,51,0.00,,,0.00,VWS V15.00,2014-09-22 09:05:00,
2014-09-22 04:10:00,46.8,29.6,29.59,NNW,342,0.0,0.0,51,0.00,,,0.00,VWS V15.00,2014-09-22 09:10:00,
2014-09-22 04:15:00,46.8,29.6,29.59,NNW,342,0.0,0.0,51,0.00,,,0.00,VWS V15.00,2014-09-22 09:15:00,
2014-09-22 04:20:00,46.8,29.6,29.59,NNW,342,0.0,0.0,51,0.00,,,0.00,VWS V15.00,2014-09-22 09:20:00,
2014-09-22 04:25:00,46.0,29.4,29.59,NNW,342,0.0,0.0,52,0.00,,,0.00,VWS V15.00,2014-09-22 09:25:00,
2014-09-22 04:30:00,46.0,29.4,29.59,NNW,342,0.0,0.0,52,0.00,,,0.00,VWS V15.00,2014-09-22 09:30:00,
2014-09-22 04:35:00,45.9,29.2,29.59,NNW,342,0.0,0.0,52,0.00,,,0.00,VWS V15.00,2014-09-22 09:35:00,
2014-09-22 04:40:00,45.9,29.2,29.59,NNW,342,0.0,0.0,52,0.00,,,0.00,VWS V15.00,2014-09-22 09:40:00,
2014-09-22 04:45:00,45.9,29.2,29.59,NNW,342,0.0,0.0,52,0.00,,,0.00,VWS V15.00,2014-09-22 09:45:00,
2014-09-22 04:50:00,45.5,28.9,29.59,NNW,342,0.0,0.0,52,0.00,,,0.00,VWS V15.00,2014-09-22 09:50:00,
2014-09-22 04:55:00,45.5,28.9,29.59,NNW,342,0.0,0.0,52,0.00,,,0.00,VWS V15.00,2014-09-22 09:55:00,
2014-09-22 05:00:00,45.5,29.4,29.59,NNW,342,0.0,0.0,53,0.00,,,0.00,VWS V15.00,2014-09-22 10:00:00,
2014-09-22 05:05:00,45.5,29.4,29.62,NNW,342,0.0,0.0,53,0.00,,,0.00,VWS V15.00,2014-09-22 10:05:00,
2014-09-22 05:10:00,45.5,29.4,29.62,NNW,342,0.0,0.0,53,0.00,,,0.00,VWS V15.00,2014-09-22 10:10:00,
2014-09-22 05:15:00,45.5,29.4,29.62,NNW,342,0.0,0.0,53,0.00,,,0.00,VWS V15.00,2014-09-22 10:15:00,
2014-09-22 05:20:00,45.1,29.0,29.62,NNW,342,0.0,0.0,53,0.00,,,0.00,VWS V15.00,2014-09-22 10:20:00,
2014-09-22 05:25:00,45.1,29.0,29.62,NNW,342,0.0,0.0,53,0.00,,,0.00,VWS V15.00,2014-09-22 10:25:00,
2014-09-22 05:30:00,45.1,29.0,29.62,NNW,342,0.0,0.0,53,0.00,,,0.00,VWS V15.00,2014-09-22 10:30:00,
2014-09-22 05:35:00,45.1,29.0,29.62,NNW,342,0.0,0.0,53,0.00,,,0.00,VWS V15.00,2014-09-22 10:35:00,
2014-09-22 05:40:00,45.1,29.0,29.62,NNW,342,0.0,0.0,53,0.00,,,0.00,VWS V15.00,2014-09-22 10:40:00,
2014-09-22 05:45:00,45.1,29.0,29.62,NNW,342,0.0,0.0,53,0.00,,,0.00,VWS V15.00,2014-09-22 10:45:00,
2014-09-22 05:50:00,45.1,29.0,29.62,NNW,342,0.0,0.0,53,0.00,,,0.00,VWS V15.00,2014-09-22 10:50:00,
2014-09-22 05:55:00,44.8,28.7,29.62,NNW,342,0.0,0.0,53,0.00,,,0.00,VWS V15.00,2014-09-22 10:55:00,
2014-09-22 06:00:00,44.8,28.7,29.62,NNW,342,0.0,0.0,53,0.00,,,0.12,VWS V15.00,2014-09-22 11:00:00,
2014-09-22 06:05:00,44.8,28.7,29.62,NNW,342,0.0,0.0,53,0.00,,,0.00,VWS V15.00,2014-09-22 11:05:00,
2014-09-22 06:10:00,44.6,29.0,29.62,NNW,342,0.0,0.0,54,0.00,,,0.00,VWS V15.00,2014-09-22 11:10:00,
2014-09-22 06:15:00,44.6,29.0,29.62,NNW,342,0.0,0.0,54,0.00,,,0.00,VWS V15.00,2014-09-22 11:15:00,
2014-09-22 06:20:00,44.6,29.0,29.62,NNW,342,0.0,0.0,54,0.00,,,0.00,VWS V15.00,2014-09-22 11:20:00,
2014-09-22 06:24:00,44.8,29.6,29.62,NNW,342,0.0,0.0,55,0.00,,,0.00,VWS V15.00,2014-09-22 11:24:00,
2014-09-22 06:29:00,44.8,29.6,29.62,NNW,342,0.0,0.0,55,0.00,,,0.00,VWS V15.00,2014-09-22 11:29:00,
2014-09-22 06:34:00,45.3,30.1,29.65,NNW,342,0.0,0.0,55,0.00,,,0.00,VWS V15.00,2014-09-22 11:34:00,
2014-09-22 06:39:00,45.3,30.1,29.65,NNW,342,0.0,0.0,55,0.00,,,0.00,VWS V15.00,2014-09-22 11:39:00,
2014-09-22 06:44:00,45.5,30.3,29.65,NNW,342,0.0,0.0,55,0.00,,,0.00,VWS V15.00,2014-09-22 11:44:00,
2014-09-22 06:49:00,45.5,30.3,29.65,NNW,342,0.0,0.0,55,0.00,,,0.00,VWS V15.00,2014-09-22 11:49:00,
2014-09-22 06:54:00,45.5,30.3,29.65,NNW,342,0.0,0.0,55,0.00,,,0.00,VWS V15.00,2014-09-22 11:54:00,
2014-09-22 06:59:00,45.3,30.1,29.65,NNW,342,0.0,0.0,55,0.00,,,0.00,VWS V15.00,2014-09-22 11:59:00,
2014-09-22 07:04:00,45.3,30.1,29.65,NNW,342,0.0,0.0,55,0.00,,,0.00,VWS V15.00,2014-09-22 12:04:00,
2014-09-22 07:09:00,45.1,30.0,29.65,NNW,342,0.0,0.0,55,0.00,,,0.00,VWS V15.00,2014-09-22 12:09:00,
2014-09-22 07:14:00,45.1,30.0,29.65,NNW,342,0.0,0.0,55,0.00,,,0.00,VWS V15.00,2014-09-22 12:14:00,
2014-09-22 07:19:00,45.1,30.0,29.65,NNW,342,0.0,0.0,55,0.00,,,0.00,VWS V15.00,2014-09-22 12:19:00,
2014-09-22 07:24:00,45.1,30.0,29.65,NNW,342,0.0,0.0,55,0.00,,,0.00,VWS V15.00,2014-09-22 12:24:00,
2014-09-22 07:29:00,45.0,29.8,29.62,NNW,342,0.0,0.0,55,0.00,,,0.00,VWS V15.00,2014-09-22 12:29:00,
2014-09-22 07:34:00,45.0,29.8,29.62,NNW,342,0.0,0.0,55,0.00,,,0.00,VWS V15.00,2014-09-22 12:34:00,
2014-09-22 07:39:00,45.1,30.4,29.62,NNW,342,0.0,0.0,56,0.00,,,0.00,VWS V15.00,2014-09-22 12:39:00,
2014-09-22 07:44:00,45.3,30.6,29.62,NNW,342,0.0,0.0,56,0.00,,,0.00,VWS V15.00,2014-09-22 12:44:00,
2014-09-22 07:49:00,45.3,30.6,29.65,NNW,342,0.0,0.0,56,0.00,,,0.00,VWS V15.00,2014-09-22 12:49:00,
2014-09-22 07:54:00,45.5,30.7,29.65,NNW,342,0.0,0.0,56,0.00,,,0.00,VWS V15.00,2014-09-22 12:54:00,
2014-09-22 07:59:00,46.0,31.7,29.65,NNW,342,0.0,0.0,57,0.00,,,0.00,VWS V15.00,2014-09-22 12:59:00,
2014-09-22 08:04:00,46.4,32.0,29.65,NNW,342,0.0,0.0,57,0.00,,,0.00,VWS V15.00,2014-09-22 13:04:00,
2014-09-22 08:09:00,46.8,32.3,29.65,NNW,342,0.0,0.0,57,0.00,,,0.00,VWS V15.00,2014-09-22 13:09:00,